Regional Weather Roundup
Issued by NWS

Home | Current Version | Previous Version | Text Only | Print | Product List | Glossary Off
Versions: 1 2 3 4 5 6 7 8 9 10 11 12 13 14 15 16 17 18 19 20 21 22 23 24 25 26 27 28 29 30 31 32 33 34 35 36 37 38 39 40 41 42 43 44 45 46 47 48 49 50

510
ASUS43 KLOT 300303
RWRIL

ILLINOIS REGIONAL WEATHER ROUNDUP
NATIONAL WEATHER SERVICE CHICAGO/ROMEOVILLE IL
1000 PM CDT FRI APR 29 2016

NOTE: "FAIR" INDICATES FEW OR NO CLOUDS BELOW 12,000 FEET WITH NO
SIGNIFICANT WEATHER AND/OR OBSTRUCTIONS TO VISIBILITY.

* THESE STATIONS ARE NOT UNDER NWS QUALITY CONTROL. THEY ALSO MAY NOT
  REPORT WEATHER SUCH AS PRECIPITATION OR FOG.

ILZ001-002-007-009-015-016-024-300400-
NORTHWEST ILLINOIS

CITY           SKY/WX    TMP DP  RH WIND       PRES   REMARKS
MOLINE         CLOUDY    49  41  74 E13       30.08S
STERLING*      CLOUDY    46  41  81 E12       30.10F
$$

ILZ003-004-008-010-011-017-018-300400-
NORTH CENTRAL ILLINOIS

CITY           SKY/WX    TMP DP  RH WIND       PRES   REMARKS
ROCKFORD       CLOUDY    45  39  79 E3        30.13F
FREEPORT*      CLOUDY    42  39  89 E3        30.13S
DE KALB*       CLOUDY    46  40  81 E10       30.13S
$$

ILZ005-006-012>014-019>023-300400-
NORTHEAST ILLINOIS

CITY           SKY/WX    TMP DP  RH WIND       PRES   REMARKS
CHICAGO-OHARE  CLOUDY    43  37  79 VRB7      30.14R
CHICAGO-MIDWAY CLOUDY    45  37  73 E8        30.14R
AURORA         CLOUDY    46  39  76 E8        30.13R
LANSING*       CLOUDY    43  38  84 NE7       30.14S
WAUKEGAN       CLOUDY    41  36  82 NE6       30.14S
DUPAGE AIRPORT CLOUDY    44  36  73 E8        30.13R
WHEELING       CLOUDY    43  37  79 E7        30.15S
NORTHERLY ISL    N/A     42  39  89 NE10        N/A
NORTHERLY ISL    N/A     42  39  89 NE10        N/A
$$

LMZ740>746-300400-
SOUTHERN LAKE MICHIGAN

STATION/POSITION SKY/WX   TEMP    WIND        PRES    VSBY  WAVE
                          AIR SEA DIR/SP/G                  HT/PER
                          (F)     (DEG/KT/KT) (MB)    (MI)  (FT/S)
SOUTHERN BUOY              41 40   40/  8/ 10 1021.2          1/ 3
HARRISON CRIB              42      20/ 10/ 11   N/A
BURNHAM HARBOR             42      10/  8/ 10   N/A
CALUMET HARBOR             42                 1020.1F
BURNS HARBOR               43      40/ 11/ 12 1021.0F
MICHIGAN CITY              42      10/  9/ 10   N/A
ST. JOSEPH                 45 47                N/A           2/ 3
$$

ILZ025>027-034>036-040-047-049-050-058-095>099-300400-
WEST-CENTRAL ILLINOIS

CITY           SKY/WX    TMP DP  RH WIND       PRES   REMARKS
QUINCY         LGT RAIN  53  47  79 E14       29.98F
MACOMB*        CLOUDY    48  46  90 NE14      30.06F
$$

ILZ028>032-037-038-041>044-048-051>054-059>061-300400-
CENTRAL ILLINOIS

CITY           SKY/WX    TMP DP  RH WIND       PRES   REMARKS
BLOOMINGTON    CLEAR     49  47  93 NE15      30.06F
DECATUR        CLOUDY    54  47  77 E12       30.03F
PEORIA         PTCLDY    49  43  80 NE12      30.06R
SPRINGFIELD    MOCLDY    55  48  77 NE10      30.03S
TAYLORVILLE    NOT AVBL
$$

ILZ033-039-045-046-055>057-062-063-300400-
EAST-CENTRAL ILLINOIS

CITY           SKY/WX    TMP DP  RH WIND       PRES   REMARKS
CHAMPAIGN      MOCLDY    53  48  83 NE15      30.05S
MATTOON        CLOUDY    56  49  77 NE10      30.01F
$$

ILZ079-100>102-300400-
SOUTHWEST ILLINOIS

CITY           SKY/WX    TMP DP  RH WIND       PRES   REMARKS
ALTON          CLOUDY    61  52  72 E7        29.98R
BELLEVILLE     CLOUDY    62  56  82 NE7       29.95S
CAHOKIA*       CLOUDY    63  53  70 E9        29.95F
SPARTA*        CLOUDY    60  55  84 E8        29.97S
$$

ILZ064>066-069>071-074>076-080>082-084>086-088>090-092>094-300400-
SOUTH-CENTRAL ILLINOIS

CITY           SKY/WX    TMP DP  RH WIND       PRES   REMARKS
CARBONDALE     LGT RAIN  60  56  86 E9        29.95S
MT. VERNON     CLOUDY    61  52  72 NE9       29.98F
SALEM*         CLOUDY    63  54  72 E6        29.98R
$$

ILZ067-068-072-073-078-083-087-091-300400-
SOUTHEAST ILLINOIS

CITY           SKY/WX    TMP DP  RH WIND       PRES   REMARKS
LAWRENCEVILLE  CLOUDY    62  54  74 NE12      30.00F
FLORA*         CLOUDY    64  54  70 E6        29.99S
HARRISBURG*    LGT RAIN  62  56  82 E8        29.98S
ROBINSON*      CLOUDY    60  52  75 NE7       30.02F
$$

ABBREVIATIONS USED IN REMARKS
   TC - TEMPERATURE IN CELSIUS
  WCI - WIND CHILL INDEX
   HX - HEAT INDEX
  VSB - VISIBILITY
$$





USA.gov is the U.S. government's official web portal to all federal, state and local government web resources and services.